FW2825 Weather Reports


time (UTC)temp
C
wind
direction
speed
KPH
gust
KPH
rain 1hr
cm
rain 24hr
cm
rain mn
cm
humidity
%
barometer
mb
20260507030003 11 360 0.0 0.0 0.00 0.79 0.79 92 1008.3
20260507024610 10 360 0.0 1.6 0.00 0.79 0.79 92 1008.0
20260507023114 11 360 0.0 0.0 0.03 0.79 0.79 94 1008.1
20260507021616 11 360 0.0 0.0 0.03 0.79 0.79 95 1008.0
20260507014609 12 360 0.0 0.0 0.03 0.79 0.79 96 1007.3
20260507013116 12 360 0.0 0.0 0.03 0.76 0.76 96 1007.3
20260507011504 13 360 0.0 0.0 0.13 0.76 0.76 96 1006.9
20260507010108 13 360 0.0 0.0 0.13 0.76 0.76 96 1006.7
20260507004611 14 360 0.0 0.0 0.13 0.76 0.76 96 1006.4
20260507003118 14 360 0.0 0.0 0.10 0.71 0.71 97 1006.4
20260507001503 15 360 0.0 0.0 0.00 0.64 0.64 97 1005.7
20260507000109 15 360 0.0 0.0 0.00 0.64 0.64 96 1005.6
20260506234612 15 360 0.0 0.0 0.00 0.64 0.64 96 1005.5
20260506233119 15 360 0.0 0.0 0.00 0.64 0.64 96 1005.3
20260506231621 15 360 0.0 0.0 0.00 0.64 0.64 96 1005.4
20260506230116 15 360 0.0 0.0 0.00 0.64 0.64 96 1005.2
20260506224622 15 360 0.0 0.0 0.05 0.64 0.64 96 1005.2
20260506223127 15 360 0.0 1.6 0.18 0.64 0.64 96 1005.2
20260506221613 15 360 0.0 0.0 0.25 0.64 0.64 96 1005.2
20260506220004 15 360 0.0 0.0 0.28 0.64 0.64 96 1005.2
20260506214611 15 360 0.0 0.0 0.23 0.58 0.58 96 1005.1
20260506213114 15 360 0.0 0.0 0.10 0.46 0.46 96 1005.1
20260506211616 15 360 0.0 0.0 0.05 0.38 0.38 96 1005.3
20260506210130 15 360 0.0 0.0 0.05 0.36 0.36 95 1005.4
20260506204609 15 360 0.0 0.0 0.05 0.36 0.36 95 1005.4
20260506203115 15 360 0.0 0.0 0.08 0.36 0.36 95 1005.5
20260506201503 15 360 0.0 1.6 0.05 0.30 0.30 95 1005.7
20260506200151 15 360 0.0 0.0 0.05 0.30 0.30 95 1005.8
20260506194620 15 360 0.0 6.4 0.10 0.30 0.30 95 1006.1
20260506193118 15 360 0.0 3.2 0.10 0.28 0.28 94 1006.2
20260506191603 15 360 0.0 1.6 0.10 0.25 0.25 94 1006.2
20260506190109 15 360 0.0 12.9 0.10 0.25 0.25 94 1006.3
20260506184616 15 360 0.0 0.0 0.05 0.20 0.20 93 1006.6
20260506183006 16 360 0.0 0.0 0.05 0.15 0.15 93 1006.4
20260506181607 16 360 0.0 0.0 0.10 0.15 0.15 92 1006.7
20260506180112 16 360 0.0 1.6 0.15 0.15 0.15 92 1006.4
20260506174619 16 360 0.0 0.0 0.15 0.15 0.15 91 1006.6
20260506173125 17 360 0.0 0.0 0.10 0.10 0.10 89 1006.8
20260506171614 18 360 0.0 0.0 0.03 0.03 0.03 86 1007.1
20260506170114 18 360 0.0 0.0 0.00 0.00 0.00 82 1007.2
20260506164620 19 360 0.0 0.0 0.00 0.00 0.00 79 1007.2
20260506163108 19 360 0.0 0.0 0.00 0.00 0.00 77 1007.2
20260506161612 19 360 0.0 9.7 0.00 0.00 0.00 76 1007.4
20260506160116 18 360 0.0 0.0 0.00 0.00 0.00 77 1007.7
20260506154604 18 360 0.0 0.0 0.00 0.00 0.00 80 1007.9
20260506153108 18 360 0.0 0.0 0.00 0.00 0.00 79 1008.1
20260506151616 18 360 0.0 0.0 0.00 0.00 0.00 79 1008.4
20260506150120 17 360 0.0 0.0 0.00 0.00 0.00 80 1008.5
20260506144609 17 360 0.0 0.0 0.00 0.00 0.00 80 1008.4
20260506143112 17 360 0.0 0.0 0.00 0.00 0.00 81 1008.7
20260506141504 17 360 0.0 0.0 0.00 0.00 0.00 81 1008.5
20260506140105 17 360 0.0 4.8 0.00 0.00 0.00 81 1008.7
20260506134620 17 360 0.0 0.0 0.00 0.00 0.00 82 1008.4
20260506133117 16 360 0.0 0.0 0.00 0.00 0.00 83 1008.4
20260506131613 16 360 0.0 0.0 0.00 0.00 0.00 84 1008.5
20260506130112 16 360 0.0 0.0 0.00 0.00 0.00 85 1008.7
20260506124618 15 360 0.0 0.0 0.00 0.00 0.00 86 1008.8
20260506123120 15 360 0.0 0.0 0.00 0.00 0.00 86 1009.0
20260506121609 15 360 0.0 0.0 0.00 0.00 0.00 88 1009.1
20260506120114 14 360 0.0 0.0 0.00 0.00 0.00 88 1009.0
20260506114506 14 360 0.0 0.0 0.00 0.00 0.00 89 1008.9
20260506113105 13 360 0.0 0.0 0.00 0.00 0.00 90 1009.1
20260506111627 13 360 0.0 0.0 0.00 0.00 0.00 91 1009.0
20260506110123 13 360 0.0 0.0 0.00 0.00 0.00 93 1009.2
20260506104607 12 360 0.0 0.0 0.00 0.00 0.00 93 1009.4
20260506103113 12 360 0.0 0.0 0.00 0.00 0.00 93 1009.3
20260506101506 12 360 0.0 0.0 0.00 0.00 0.00 92 1008.9
20260506100106 12 360 0.0 0.0 0.00 0.00 0.00 92 1009.0
20260506094611 12 360 0.0 0.0 0.00 0.00 0.00 90 1009.0
20260506093117 12 360 0.0 0.0 0.00 0.00 0.00 90 1009.1
20260506091621 12 360 0.0 0.0 0.00 0.00 0.00 90 1009.0
20260506090107 12 360 0.0 0.0 0.00 0.00 0.00 90 1009.0
20260506084613 12 360 0.0 0.0 0.00 0.00 0.00 90 1009.0
20260506083005 12 360 0.0 0.0 0.00 0.00 0.00 90 1009.2
20260506081606 12 360 0.0 0.0 0.00 0.00 0.00 90 1009.1
20260506080117 12 360 0.0 0.0 0.00 0.00 0.00 90 1009.1
20260506073004 12 360 0.0 0.0 0.00 0.00 0.00 87 1008.9
20260506071606 12 360 0.0 0.0 0.00 0.00 0.00 87 1009.1
20260506070127 12 360 0.0 0.0 0.00 0.00 0.00 85 1009.0
20260506061611 14 360 0.0 0.0 0.00 0.00 0.00 81 1008.7
20260506060120 14 360 0.0 0.0 0.00 0.00 0.00 80 1008.7
20260506050117 15 360 0.0 0.0 0.00 0.00 0.00 77 1009.0
20260506044612 15 360 0.0 0.0 0.00 0.00 0.00 76 1009.1
20260506043116 15 360 0.0 0.0 0.00 0.00 0.00 75 1009.0
20260506041623 16 360 0.0 0.0 0.00 0.00 0.00 74 1009.1
20260506040107 16 360 0.0 0.0 0.00 0.00 0.00 73 1009.1
20260506034616 16 360 0.0 0.0 0.00 0.00 0.00 72 1009.1
20260506033014 16 360 0.0 0.0 0.00 0.00 0.00 71 1009.1
20260506031610 16 360 0.0 0.0 0.00 0.00 0.00 70 1009.1